{"data":{"norad_id":62236,"epoch":"2026-05-25T05:02:30.061824Z","epoch_age_seconds":53597,"freshness":"FRESH","line1":"1 62236U 24231U   26145.21007016  .00016085  00000+0  55388-3 0  9997","line2":"2 62236  53.1566 211.4398 0001037  68.4937 291.6175 15.30208114 83651","mean_motion":15.30208114,"eccentricity":0.0001037,"inclination_deg":53.1566,"raan_deg":211.4398,"arg_perigee_deg":68.4937,"mean_anomaly_deg":291.6175,"bstar":0.00055388,"rev_number":8365,"period_min":94.104846708452,"perigee_km":474.48015248766,"apogee_km":475.90153268221,"semimajor_km":6853.3278425849,"source":"CELESTRAK","updated_at":"2026-05-25T13:38:19.639863Z"}}